Vertical_Velocity
0 1 1 1 -2 4 -3 1 -8 -8 0 -1 -0 -6 3 -2 -0 5 -2 -4 -0 3 2 -2 -1 -2 0 0 -0 -2 1 0 4 1 5 -1 -2 1 3 2 1 -1 1 -2 -0 1 1 0 -1
1 -5 -1 3 1 -1 4 2 3 -3 2 7 2 -5 -1 -4 -0 3 1 -4 1 0 3 0 2 3 -1 1 2 0 -1 2 1 2 -1 2 -0 -0 1 2 -2 0 -0 -2 -1 0 1 3 -1
1 1 -1 -2 2 -0 -0 -2 3 -2 -8 -1 5 3 3 -2 -1 2 -0 -1 -2 -0 0 -1 0 0 2 -3 -2 2 -2 0 3 1 1 -1 -1 -1 -1 -1 -1 -1 -1 2 -1 -0 1 0 1
-3 4 2 2 -0 1 -4 -1 -15 -2 4 -3 3 9 4 0 -5 2 1 3 -2 -1 1 -0 -1 -2 1 -0 -2 1 3 1 6 7 1 -1 2 -5 4 -2 1 1 -1 -1 1 -0 -0 -0 3
0 -0 1 -1 1 -15 -14 -8 -34 -4 3 -0 4 0 1 -2 2 -1 2 -0 0 -3 -1 -1 -1 -4 1 2 2 -2 3 -4 -1 4 4 1 -2 0 -2 0 2 3 2 0 3 3 0 1 2
-1 -2 -2 -2 -4 -0 2 4 -6 1 2 -5 4 2 -0 1 -2 4 -2 3 1 0 -0 1 1 -0 -3 1 -2 1 -0 4 0 -1 3 -2 2 -6 -2 2 2 2 1 -1 -0 -0 -1 2 -2
-0 -1 2 1 5 3 4 1 3 4 -1 0 3 1 2 -1 1 -3 2 0 1 -2 -0 -1 -1 0 -3 -1 -4 1 3 2 2 -2 -0 -1 2 2 1 -3 -0 1 1 1 -0 2 -1 -2 13
-4 0 1 7 -7 -2 -4 2 2 0 1 1 4 2 3 2 5 -2 -1 -1 2 3 2 3 -0 1 2 2 -2 -1 3 -1 7 2 2 3 2 -1 2 1 -1 2 0 0 2 2 0 3 5
-1 -3 -1 5 -4 -8 6 -8 -5 -5 3 -3 -1 1 3 -0 -1 -3 1 -0 -0 -3 4 2 4 3 5 -0 0 1 1 1 -9 1 6 2 -2 1 4 1 1 0 -0 1 2 -1 0 8 7
-1 1 6 7 -4 1 2 1 -1 -1 -2 -1 3 3 2 1 -1 -0 1 -3 0 3 1 1 0 0 1 2 2 3 -0 11 1 4 7 3 -1 2 1 1 1 1 3 2 -0 2 1 7 4
-1 -0 -2 5 5 1 2 -4 -1 0 -0 6 3 2 3 1 0 -4 -0 -3 -0 -3 -2 2 1 3 2 1 1 1 13 3 9 7 6 0 -1 -2 2 0 0 1 -1 -1 1 3 3 6 4
-3 2 -2 2 1 1 3 -9 -8 -6 1 1 -1 8 2 -0 2 -6 -3 -2 0 -2 -3 -3 -2 -1 1 0 1 2 -0 1 -0 1 0 0 -1 -1 -1 2 1 -0 -1 -1 -0 1 0 -1 3
-1 1 -4 9 6 -2 -3 4 4 4 4 5 1 3 0 -1 -2 1 -3 -2 2 1 0 2 -1 -1 -0 2 1 0 -0 -0 -0 -2 -1 3 -4 -5 3 1 -1 -1 -2 -0 -0 1 2 -1 -1
-1 -4 4 -6 5 2 2 -2 1 3 3 3 3 -3 3 -2 4 -2 8 17 -1 0 2 4 10 0 1 0 -0 1 -0 1 2 -1 -1 1 -1 -3 -0 0 -1 -2 -2 -1 -0 2 5 -2 -0
-3 -2 4 -5 2 0 0 6 -1 5 -0 4 6 -3 3 1 9 7 10 3 -0 1 2 2 -0 -1 -0 -0 -1 1 10 1 3 0 -1 -1 0 -1 -0 -3 -0 1 0 1 2 3 3 2 -1
0 2 1 7 8 -1 -1 5 0 0 -1 7 7 2 6 -2 -10 -1 -1 -0 0 1 -1 2 3 2 2 0 -1 8 12 -2 -2 1 -1 -1 -0 -2 0 -1 -1 -0 1 1 8 7 1 -1 2
1 0 -3 -4 -3 -1 -0 5 2 -3 -0 6 9 1 16 0 3 -4 5 -3 1 2 1 2 4 1 -1 -1 -2 6 -1 1 0 1 0 -2 -1 1 2 3 -1 -0 4 8 3 0 1 2 1
-0 -3 -0 1 -6 5 1 6 1 3 -0 2 14 13 20 12 -12 -11 -1 -7 -3 2 -1 -3 -1 -2 3 1 2 0 1 1 1 2 1 -1 -2 1 2 4 -1 -0 2 8 1 5 2 2 1
1 0 2 5 -2 3 -1 -2 -1 3 1 -5 -4 -1 11 -2 1 -5 -6 -1 1 -4 9 0 -2 -1 1 2 2 1 3 1 3 6 2 -3 -1 2 2 1 0 -1 2 4 0 2 2 1 -0
2 -0 5 3 -3 7 -2 -2 -2 -1 2 -1 -1 -5 3 -3 9 2 1 3 -1 6 2 2 -1 6 6 9 3 5 1 1 1 1 3 2 2 1 1 -0 0 -2 1 1 1 6 1 2 6
-0 -2 3 8 -1 3 -2 -2 -1 0 1 1 1 -1 -4 -2 -2 -4 -5 -1 -0 -0 2 -4 -1 1 0 3 -4 1 1 -0 -1 -1 6 -0 -0 1 1 -0 -0 -1 1 1 1 6 3 2 1
-3 2 1 2 5 0 2 -2 1 1 0 -3 -0 0 -1 2 -3 -6 -0 3 5 -0 2 1 1 2 3 0 -1 -2 -1 1 1 0 0 0 1 0 -1 -1 -1 -0 1 0 1 5 5 6 2
0 3 0 1 4 2 2 -0 -1 2 -2 -3 1 -5 -2 -5 -3 -2 -2 -1 -3 0 0 3 2 0 1 1 1 1 2 2 2 1 1 1 -1 -0 1 -1 -2 -0 1 -1 0 3 2 3 4
-0 1 4 1 1 -1 0 -1 -1 -0 -0 -1 -2 -3 -3 2 3 -4 -2 -1 -1 1 2 5 2 1 1 3 1 2 1 2 1 2 1 2 -0 -1 -1 -2 -1 -2 0 1 -0 2 1 -1 3
1 3 -1 -4 -3 -4 -0 2 -4 2 -4 -4 -3 -3 -4 -5 3 6 -1 -4 -5 -3 -2 -4 1 1 0 1 2 3 1 2 1 0 -0 2 2 1 2 -1 -1 0 -1 1 -1 -0 0 -1 -0
0 2 -5 -3 -2 -2 -2 -0 -0 4 -2 -3 -4 -7 -3 -4 -1 8 4 -7 -4 -7 2 9 14 -4 -3 2 4 2 -1 3 2 2 -1 -1 1 0 -1 -2 -3 -2 -0 -1 -1 -0 0 -3 1
-3 5 2 -3 -0 -1 -3 -0 1 0 1 6 -9 -7 -2 -3 -5 -2 0 -1 -2 -5 7 9 22 2 -7 2 1 9 1 1 2 2 2 2 -0 -2 -1 0 -1 -4 -5 -3 -2 -2 -1 -1 -1
-2 4 -2 -1 -4 -1 -2 -5 -6 12 6 2 -6 -6 1 -2 -5 -0 3 2 1 1 -3 -5 0 -4 -3 -0 2 15 -1 -1 -1 -1 -5 -9 -6 4 -2 -1 0 -2 -0 -1 -1 -0 -1 -1 1
-1 -3 -1 -0 1 -8 -2 -11 -5 19 10 -9 -1 -2 -3 3 -1 -1 2 2 0 0 0 1 -4 -2 -3 -6 -6 0 2 0 5 -4 2 4 0 -0 6 4 3 2 1 0 -1 -1 -3 -4 -2
9 0 2 -1 -4 -1 2 -11 2 -14 -0 -5 -4 -4 -3 4 -1 -0 -3 1 -3 -5 -3 -1 0 0 -0 8 -2 2 -21 18 -24 -12 -6 1 -3 -10 1 2 7 5 3 3 2 3 1 -1 -2
Height
3163 3162 3162 3162 3167 3165 3166 3169 3169 3172 3174 3175 3174 3175 3177 3176 3177 3180 3177 3178 3180 3183 3183 3185 3188 3191 3192 3195 3197 3199 3202 3203 3205 3206 3209 3211 3212 3214 3216 3217 3218 3218 3219 3219 3220 3220 3220 3219 3219
3164 3162 3161 3162 3166 3165 3168 3170 3171 3174 3174 3175 3176 3175 3176 3177 3177 3178 3178 3179 3182 3184 3186 3188 3189 3192 3193 3195 3197 3200 3202 3205 3206 3207 3209 3212 3214 3215 3216 3217 3218 3218 3219 3220 3220 3220 3219 3219 3219
3164 3163 3163 3164 3166 3166 3170 3171 3171 3175 3175 3176 3177 3177 3177 3177 3177 3178 3179 3180 3182 3185 3187 3189 3191 3193 3194 3196 3198 3200 3203 3205 3206 3208 3209 3211 3213 3215 3216 3217 3218 3218 3218 3219 3219 3220 3219 3219 3218
3164 3165 3166 3167 3167 3170 3172 3173 3171 3175 3175 3178 3178 3179 3177 3176 3176 3177 3180 3182 3183 3185 3187 3190 3192 3194 3196 3198 3200 3201 3203 3205 3206 3207 3209 3211 3213 3214 3215 3217 3217 3217 3218 3218 3219 3219 3218 3218 3217
3167 3167 3167 3168 3169 3170 3173 3175 3171 3175 3177 3179 3179 3178 3177 3176 3176 3178 3181 3183 3184 3186 3188 3190 3192 3194 3197 3199 3201 3202 3203 3204 3206 3207 3208 3210 3211 3213 3215 3216 3217 3217 3217 3218 3218 3218 3218 3217 3217
3170 3170 3170 3171 3171 3171 3173 3174 3175 3177 3178 3179 3179 3179 3179 3177 3177 3179 3180 3182 3184 3186 3189 3191 3193 3195 3196 3199 3201 3202 3203 3204 3204 3205 3207 3208 3209 3210 3213 3215 3215 3216 3217 3217 3218 3218 3217 3217 3215
3172 3172 3172 3172 3173 3173 3175 3175 3175 3177 3177 3178 3179 3179 3179 3178 3176 3177 3180 3181 3183 3186 3188 3191 3193 3195 3197 3199 3201 3202 3203 3203 3203 3203 3205 3207 3207 3209 3211 3212 3214 3215 3216 3216 3217 3218 3218 3216 3215
3173 3173 3173 3174 3175 3175 3175 3175 3176 3177 3177 3177 3178 3179 3179 3178 3177 3177 3179 3181 3182 3186 3188 3191 3193 3195 3197 3200 3201 3202 3202 3202 3202 3201 3203 3205 3206 3208 3209 3210 3212 3213 3215 3215 3216 3217 3217 3216 3215
3175 3176 3175 3176 3176 3176 3174 3175 3176 3177 3176 3176 3177 3178 3178 3177 3176 3178 3179 3181 3182 3184 3186 3190 3193 3196 3198 3200 3201 3202 3202 3202 3199 3199 3200 3204 3206 3206 3207 3208 3210 3212 3213 3214 3215 3217 3217 3215 3215
3175 3175 3176 3176 3176 3176 3176 3176 3176 3177 3176 3176 3176 3178 3177 3176 3176 3178 3179 3181 3182 3184 3187 3190 3192 3196 3198 3200 3201 3202 3202 3200 3201 3200 3201 3202 3204 3205 3206 3207 3209 3210 3212 3213 3214 3215 3215 3214 3214
3175 3176 3177 3177 3177 3177 3176 3176 3176 3175 3175 3176 3176 3176 3175 3174 3175 3177 3179 3180 3181 3183 3186 3189 3192 3195 3197 3200 3201 3201 3201 3202 3201 3200 3199 3200 3202 3204 3204 3205 3207 3209 3210 3211 3212 3213 3214 3214 3214
3176 3176 3176 3178 3178 3177 3176 3175 3174 3173 3174 3174 3174 3175 3174 3173 3175 3178 3179 3179 3180 3182 3185 3188 3191 3194 3197 3199 3200 3201 3202 3201 3202 3200 3199 3200 3201 3202 3204 3204 3206 3208 3209 3210 3211 3212 3213 3213 3213
3175 3176 3176 3176 3177 3177 3176 3174 3173 3171 3171 3173 3173 3173 3173 3173 3174 3177 3178 3178 3179 3181 3184 3186 3189 3192 3195 3197 3199 3200 3201 3201 3201 3200 3199 3200 3199 3200 3202 3204 3205 3207 3208 3209 3210 3212 3213 3213 3213
3176 3176 3177 3176 3175 3175 3175 3174 3172 3170 3169 3169 3170 3171 3171 3172 3173 3175 3177 3179 3180 3180 3183 3185 3188 3191 3194 3196 3197 3199 3200 3200 3200 3199 3199 3200 3200 3201 3202 3204 3205 3206 3208 3209 3211 3213 3213 3212 3213
3176 3176 3177 3175 3174 3175 3174 3173 3170 3168 3167 3167 3169 3169 3169 3169 3172 3175 3177 3179 3180 3181 3182 3185 3188 3190 3193 3194 3196 3197 3198 3199 3198 3198 3198 3198 3199 3200 3202 3203 3205 3206 3208 3209 3211 3213 3213 3212 3212
3176 3177 3175 3175 3174 3173 3174 3171 3170 3168 3169 3170 3169 3167 3167 3168 3172 3172 3176 3177 3180 3180 3183 3186 3188 3189 3191 3193 3194 3194 3197 3197 3198 3198 3198 3197 3199 3200 3201 3203 3205 3206 3208 3209 3211 3212 3213 3212 3212
3177 3175 3176 3175 3173 3172 3173 3172 3171 3169 3169 3169 3167 3165 3164 3167 3169 3171 3175 3176 3179 3181 3183 3185 3186 3188 3190 3191 3193 3193 3195 3195 3196 3196 3197 3197 3198 3199 3200 3203 3205 3206 3208 3210 3211 3212 3213 3212 3212
3176 3176 3176 3174 3173 3172 3173 3172 3171 3169 3168 3168 3167 3164 3161 3163 3166 3172 3176 3176 3178 3180 3182 3184 3185 3187 3188 3190 3191 3192 3193 3193 3194 3194 3195 3195 3197 3198 3199 3201 3204 3206 3208 3210 3211 3211 3212 3212 3212
3176 3175 3175 3173 3174 3174 3173 3173 3171 3170 3169 3167 3166 3163 3162 3167 3170 3175 3175 3177 3180 3181 3183 3184 3185 3185 3187 3188 3189 3190 3191 3192 3193 3192 3191 3192 3194 3196 3196 3200 3203 3205 3207 3209 3210 3211 3212 3212 3212
3175 3173 3174 3173 3173 3174 3174 3173 3172 3172 3171 3168 3168 3165 3166 3169 3172 3176 3177 3180 3181 3183 3183 3184 3184 3185 3186 3187 3188 3188 3189 3190 3191 3191 3191 3190 3190 3192 3194 3198 3201 3203 3206 3208 3209 3210 3210 3211 3212
3173 3172 3173 3173 3173 3174 3175 3176 3174 3174 3172 3171 3170 3170 3170 3173 3176 3179 3180 3182 3184 3184 3184 3185 3185 3186 3187 3187 3187 3187 3188 3189 3190 3190 3189 3189 3189 3191 3193 3196 3199 3202 3204 3206 3208 3208 3209 3209 3211
3170 3172 3172 3171 3173 3173 3174 3178 3175 3175 3174 3172 3172 3172 3173 3175 3177 3180 3182 3185 3185 3186 3186 3186 3186 3187 3187 3187 3186 3186 3187 3187 3188 3188 3188 3189 3189 3191 3193 3195 3198 3201 3203 3205 3207 3208 3208 3209 3210
3170 3171 3171 3170 3171 3172 3173 3174 3177 3175 3176 3174 3174 3173 3174 3176 3180 3181 3184 3185 3186 3186 3187 3187 3188 3188 3187 3188 3187 3187 3187 3187 3188 3187 3188 3189 3190 3191 3193 3195 3198 3200 3203 3204 3206 3207 3208 3208 3208
3169 3170 3171 3171 3171 3172 3172 3173 3176 3174 3176 3176 3176 3176 3176 3178 3180 3183 3185 3186 3187 3186 3187 3187 3188 3188 3187 3188 3188 3187 3187 3186 3186 3186 3186 3187 3188 3190 3191 3193 3196 3199 3201 3202 3204 3205 3207 3207 3208
3167 3169 3171 3173 3174 3173 3172 3173 3172 3173 3175 3176 3178 3178 3178 3179 3181 3184 3185 3186 3187 3187 3186 3186 3186 3187 3188 3188 3188 3188 3187 3186 3186 3186 3185 3186 3187 3188 3190 3192 3194 3196 3198 3200 3201 3203 3205 3205 3206
3165 3168 3170 3174 3176 3172 3172 3171 3171 3172 3174 3177 3179 3180 3180 3181 3182 3185 3186 3187 3188 3187 3186 3182 3181 3185 3187 3187 3188 3189 3187 3186 3186 3185 3185 3186 3186 3187 3188 3190 3192 3193 3195 3197 3198 3200 3202 3203 3204
3164 3165 3169 3169 3172 3172 3172 3171 3169 3170 3172 3175 3178 3180 3181 3182 3183 3184 3186 3187 3188 3188 3185 3184 3175 3184 3186 3186 3186 3187 3185 3186 3186 3185 3185 3185 3185 3186 3187 3188 3189 3191 3192 3193 3195 3196 3198 3199 3201
3161 3164 3166 3167 3174 3176 3172 3168 3165 3165 3168 3172 3175 3178 3180 3182 3183 3184 3186 3187 3187 3187 3186 3185 3185 3186 3186 3185 3185 3184 3185 3185 3186 3185 3184 3184 3184 3185 3186 3186 3187 3188 3189 3190 3191 3192 3194 3195 3197
3159 3161 3164 3166 3167 3169 3174 3164 3164 3166 3166 3169 3173 3176 3179 3181 3182 3183 3184 3185 3185 3184 3184 3184 3183 3183 3184 3183 3184 3184 3184 3183 3183 3183 3183 3182 3182 3182 3182 3183 3184 3184 3185 3186 3187 3188 3189 3190 3192
3154 3157 3160 3161 3164 3164 3164 3163 3161 3164 3164 3165 3169 3173 3176 3178 3180 3181 3182 3183 3183 3182 3181 3180 3179 3179 3179 3178 3180 3180 3175 3163 3178 3181 3179 3176 3178 3178 3179 3178 3177 3178 3179 3180 3181 3183 3183 3184 3186